Liberia, Costa Rica

8:20 AM CST on December 11, 2017 (GMT -0600)
Daniel Oduber Quiros International

Weather History for MRLB - October, 2012

Change the Weather History Date:

Wednesday, October 31, 2012

  Actual Average Record
Temperature  
Mean Temperature 79 °F -  
Max Temperature 90 °F 85 °F 91 °F (1996)
Min Temperature 68 °F 72 °F 68 °F (2012)
Cooling Degree Days 14    
Growing Degree Days 29 (Base 50)    
Moisture  
Dew Point 67 °F    
Average Humidity 59    
Maximum Humidity 91    
Minimum Humidity 40    
Precipitation  
Precipitation 0.00 in - - ()
Sea Level Pressure  
Sea Level Pressure 29.90 in    
Wind  
Wind Speed 7 mph ()    
Max Wind Speed 14 mph    
Max Gust Speed -    
Visibility 7.7 miles    
Events      
Averages and records for this station are not official NWS values.
T = Trace of Precipitation, MM = Missing Value Source: Averaged Metar Reports

Daily Weather History Graph

Daily Weather History Graph

Search for Another Location

Airport or City:

Trip Planner

Search our weather history database for the weather conditions in past years. The results will help you decide how hot, cold, wet, or windy it might be!

Date:

Astronomy

Oct. 31, 2012 Rise Set
Actual Time 5:33 AM CST 5:18 PM CST
Civil Twilight 5:11 AM CST 5:39 PM CST
Nautical Twilight 4:46 AM CST 6:04 PM CST
Astronomical Twilight 4:21 AM CST 6:29 PM CST
Moon 6:48 PM CST (10/31) 6:55 AM CST (10/31)
Length of Visible Light 12h 28m
Length of Day
11h 44m
Full, 97% of the Moon is Illuminated
Oct 31
Full
Nov 6
Last Quarter
Nov 13
New
Nov 20
First Quarter
Nov 28
Full

Hourly Weather History & Observations

Time (CST) Temp. Heat Index Dew Point Humidity Pressure Visibility Wind Dir Wind Speed Gust Speed Precip Events Conditions
6:00 AM 69 °F - 67 °F 91% 29.92 in 12 mi NW 5.8 mph - -   Scattered Clouds
6:00 AM 69.8 °F - 66.2 °F 88% 29.91 in 6.2 mi NW 5.8 mph - N/A   Scattered Clouds
7:00 AM 75.2 °F - 68.0 °F 78% 29.93 in 6.2 mi SE 4.6 mph - N/A   Scattered Clouds
8:00 AM 78.8 °F - 68.0 °F 69% 29.93 in 6.2 mi WSW 6.9 mph - N/A   Scattered Clouds
9:00 AM 83 °F - 67 °F 50% 29.96 in 12 mi SW 5.8 mph - -   Partly Cloudy
9:00 AM 82.4 °F 85.4 °F 68.0 °F 62% 29.94 in 6.2 mi SW 5.8 mph - N/A   Scattered Clouds
10:00 AM 86.0 °F 88.2 °F 66.2 °F 51% 29.94 in 6.2 mi West 8.1 mph - N/A   Scattered Clouds
11:00 AM 87.8 °F 90.4 °F 66.2 °F 49% 29.91 in 6.2 mi West 6.9 mph - N/A   Partly Cloudy
12:00 PM 87 °F - 66 °F 40% 29.91 in 12 mi SE 6.9 mph - -   Scattered Clouds
12:00 PM 86.0 °F 88.2 °F 66.2 °F 51% 29.89 in 6.2 mi SE 6.9 mph - N/A   Scattered Clouds
1:00 PM 87.8 °F 90.4 °F 66.2 °F 49% 29.87 in 6.2 mi East 10.4 mph - N/A   Scattered Clouds
2:00 PM 87.8 °F 89.4 °F 64.4 °F 46% 29.84 in 6.2 mi East 13.8 mph - N/A   Partly Cloudy
3:00 PM 87 °F - 67 °F 41% 29.86 in 12 mi ENE 13.8 mph - -   Partly Cloudy
3:00 PM 87.8 °F 90.4 °F 66.2 °F 49% 29.85 in 6.2 mi ENE 13.8 mph - N/A   Scattered Clouds
4:00 PM 86.0 °F 88.2 °F 66.2 °F 51% 29.85 in 6.2 mi East 10.4 mph - N/A   Partly Cloudy
5:00 PM 80.6 °F 83.2 °F 68.0 °F 65% 29.87 in 6.2 mi ESE 11.5 mph - N/A   Scattered Clouds
6:00 PM 80 °F - 67 °F 56% 29.90 in 12 mi East 8.1 mph - -   Overcast
6:00 PM 80.6 °F 83.2 °F 68.0 °F 65% 29.88 in 6.2 mi East 8.1 mph - N/A   Mostly Cloudy
7:00 PM 78.8 °F - 66.2 °F 65% 29.90 in 6.2 mi ESE 12.7 mph - N/A   Scattered Clouds
8:00 PM 78.8 °F - 68.0 °F 69% 29.92 in 6.2 mi East 8.1 mph - N/A   Scattered Clouds